Location: La Table
(45.4742°N, 6.1678°E)
Time: 13:18:56
(UTC+01:00)

ISS - Visible Passes

Search period start: 03 December 2022 00:00
Search period end: 13 December 2022 00:00
Orbit: 414 x 420 km, 51.6° (Epoch: 03 December)

Date Brightness Start Highest point End Pass type
(mag) Time Alt. Az. Time Alt. Az. Time Alt. Az.
03 Dec -3.4 17:51:38 10° NW 17:54:53 47° NNE 17:57:24 15° E visible
03 Dec -1.5 19:28:32 10° WNW 19:30:21 25° W 19:30:21 25° W visible
04 Dec -3.2 18:40:16 10° WNW 18:43:33 54° SW 18:44:44 33° SSE visible
05 Dec -3.8 17:52:05 10° WNW 17:55:26 86° SSW 17:58:46 10° ESE visible
05 Dec -0.8 19:29:59 10° W 19:31:44 14° SW 19:32:22 13° SW visible
06 Dec -1.3 18:41:07 10° W 18:43:45 22° SW 18:46:24 10° S visible
07 Dec -2.0 17:52:37 10° WNW 17:55:43 35° SW 17:58:46 10° SSE visible
09 Dec -0.5 17:53:48 10° W 17:55:42 14° SW 17:57:36 10° SSW visible
